Regional Weather Roundup
Issued by NWS

Home | Current Version | Previous Version | Text Only | Print | Product List | Glossary Off
Versions: 1 2 3 4 5 6 7 8 9 10 11 12 13 14 15 16 17 18 19 20 21 22 23 24 25 26 27 28 29 30 31 32 33 34 35 36 37 38 39 40 41 42 43 44 45 46 47 48 49 50

022
ASUS45 KTFX 101310
RWRMT
MONTANA REGIONAL WEATHER ROUNDUP
NATIONAL WEATHER SERVICE GREAT FALLS MT
600 AM MST SUN DEC 10 2017

NOTE: "FAIR" INDICATES FEW OR NO CLOUDS BELOW 12000 FEET WITH NO
SIGNIFICANT WEATHER AND/OR OBSTRUCTIONS TO VISIBILITY.

MTZ001>007-043-101400-
WEST OF THE DIVIDE

CITY           SKY/WX    TMP DP  RH WIND       PRES   REMARKS
KALISPELL      CLOUDY    24  21  88 CALM      30.63S
MISSOULA       CLOUDY    19  17  92 SE3       30.65F FOG
BUTTE          FAIR       5   0  79 SE3       30.53F
MULLAN PASS    FAIR      36   6  28 SW7       30.48F WCI  30
ANACONDA         N/A      9   5  85 CALM      30.54S
DEER LODGE       N/A      5   1  85 W5        30.59R
EUREKA           N/A    N/A N/A N/A MISG      30.64S
HAMILTON         N/A     16  12  86 CALM      30.63F VSB 1/4
LIBBY            N/A     27  21  80 CALM      30.63S
RONAN            N/A     24  20  85 SE3       30.59F
$$

MTZ008-052>055-101400-
SOUTHWEST MONTANA

CITY           SKY/WX    TMP DP  RH WIND       PRES   REMARKS
BOZEMAN        FAIR       8   4  83 S5        30.52R
DILLON         FAIR      20   8  60 S14       30.52F WCI   7
W YELLOWSTONE  CLOUDY    -2  -8  78 CALM      30.61F
ENNIS          CLOUDY    21  10  63 S13       30.56S WCI   9
THREE FORKS      N/A      3  -2  80 CALM      30.43F
$$

MTZ009-010-012-014-046-048-049-054-101400-
EAST SLOPES AND CENTRAL MONTANA

CITY           SKY/WX    TMP DP  RH WIND       PRES   REMARKS
CUT BANK       FAIR      45   4  18 W25       30.25F
GREAT FALLS    FAIR      42   8  24 SW20      30.32R
MALMSTROM AFB  FAIR      41  10  27 SW21      30.31R
HELENA         FAIR      14  12  92 CALM      30.51S
BOWMANS CRNR   FAIR      34  10  37 S22       30.34R WCI  22
CHOTEAU          N/A     52  -4  10 W15       30.31R
FAIRFIELD      FAIR      38   8  28 SW20      30.30R WCI  28
POWER          FAIR      38   7  27 SW12      30.30R WCI  31
RAYNESFORD     FAIR      49   4  16 SW23G32   30.29F
ULM            FAIR      38  11  33 S9        30.34S WCI  31
$$

MTZ011-013-016-021-045-047-050-051-101400-
NORTH CENTRAL MONTANA

CITY           SKY/WX    TMP DP  RH WIND       PRES   REMARKS
HAVRE          FAIR      40  10  29 SW18      30.21R
LEWISTOWN      FAIR      35  13  40 VRB5      30.28S
N BAR RANCH    FAIR      48   0  13 NW14      30.27R
CHINOOK          N/A     37   9  30 NW6       30.20S
DENTON         FAIR      46   4  17 MISG      30.22S
GEYSER         FAIR      44   6  21 W18G26    30.26S
GRASS RANGE    FAIR      46   7  20 W10       30.19F
STANFORD       FAIR      43   6  21 W8        30.28S
WINIFRED       FAIR      42   7  23 W12       30.23S
$$

MTZ017>020-022>027-061-062-101400-
NORTHEAST MONTANA

CITY           SKY/WX    TMP DP  RH WIND       PRES   REMARKS
GLASGOW        FAIR      27  13  55 NW6       30.17R WCI  20
GLENDIVE       FAIR      39  13  34 NW12      30.15F WCI  32
JORDAN           N/A     32  12  43 W12       30.19S WCI  23
SIDNEY         FAIR      41  17  38 W15       30.11R
WOLF POINT     FAIR      32  14  47 W16       30.15S WCI  21
MALTA          CLEAR     25  12  58 CALM      30.19S
PLENTYWOOD       N/A     32  19  59 CALM      30.07F
POPLAR           N/A     30  12  47 W13       30.14S WCI  20
$$

MTZ028>42-056>058-101400-
SOUTHCENTRAL AND SOUTHEAST MONTANA

CITY           SKY/WX    TMP DP  RH WIND       PRES   REMARKS
BAKER          FAIR      31  17  56 W12       30.19F WCI  22
BILLINGS       FAIR      36  15  42 SW23      30.31S WCI  24
LIVINGSTON     FAIR      42   9  25 SW26G35   30.42R
MILES CITY     FAIR      32  14  47 SW6       30.23S WCI  26
BIG TIMBER     CLEAR     43   7  22 W38G47    30.35S
FORSYTH          N/A     37  10  32 SW10      30.24S WCI  30
HARLOWTON      FAIR      42   8  24 NW33G44   30.32S
LAUREL           N/A     30  16  55 SW7       30.35R WCI  23
$$

REGIONAL REPORTS...DAKOTAS

CITY           SKY/WX    TMP DP  RH WIND       PRES   REMARKS
WILLISTON      CLOUDY    34  18  52 S6        30.09R WCI  29
MINOT          FAIR      33  22  63 W12       29.99S WCI  24
DICKINSON      FAIR      33  18  53 W16       30.07S WCI  23
BEACH          FAIR      34  14  44 W18G25    30.15F WCI  23
CROSBY         FAIR      32  21  64 W13       30.04F WCI  22
TIOGA          FAIR      28  19  69 W9G15     30.05F WCI  20
BISMARCK       FAIR      30  23  75 S8        30.06S WCI  22
GRAND FORKS    MOCLDY    17  15  92 NW8       30.03R WCI   7
FARGO          FAIR      20  17  88 NW8       30.01R WCI  10
BUFFALO SD       N/A     36  16  44 W22       30.11S WCI  25
RAPID CITY     FAIR      47   5  18 NW15      30.21R
$$

REGIONAL REPORTS...WYOMING/IDAHO/WASHINGTON

CITY           SKY/WX    TMP DP  RH WIND       PRES   REMARKS
GILLETTE       FAIR      32  12  43 W14       30.32R WCI  22
SHERIDAN       FAIR      28  10  46 CALM      30.31S
BUFFALO WY     FAIR      38  -1  19 W8        30.33F
CODY           FAIR      30  11  45 CALM      30.38F
YELLOWSTONE LA   N/A      2  -1  88 CALM      30.60S
IDAHO FALLS    FAIR       7   5  91 N3        30.64F
SALMON         CLOUDY    16  14  92 E5        30.78S
BOISE          CLOUDY    26  20  77 E7        30.73S WCI  18
SPOKANE        CLOUDY    27  24  89 NE6       30.63S WCI  20
$$

REGIONAL REPORTS...ALBERTA

CITY           SKY/WX    TMP DP  RH WIND       PRES   REMARKS
EDMONTON       CLEAR     39  18  41 NW7       30.08S
CALGARY        CLOUDY    54   0  11 W14G20    30.16R
LETHBRIDGE     PTCLDY    50   5  16 W26G36    30.17F
MEDICINE HAT   CLEAR     30  16  55 SW6       30.15F WCI  24
$$

REGIONAL REPORTS...SASKATCHEWAN

CITY           SKY/WX    TMP DP  RH WIND       PRES   REMARKS
SWIFT CURRENT  CLEAR     37  16  41 W22       30.08F WCI  27
REGINA         CLOUDY    32  27  80 W10       30.01F WCI  24
SASKATOON      PTCLDY    27  23  86 CALM      30.00F
$$




USA.gov is the U.S. government's official web portal to all federal, state and local government web resources and services.